Year,Month,Day,Hour,Minute,Value (Times are PST for temperature in C)
2009,12,07,09,12,-0.90
2009,12,07,09,13,-0.90
2009,12,07,09,14,-0.90
2009,12,07,09,15,-0.90
2009,12,07,09,16,-0.90
2009,12,07,09,17,-0.90
2009,12,07,09,18,-0.90
2009,12,07,09,19,-0.90
2009,12,07,09,20,-0.90
2009,12,07,09,21,-0.80
2009,12,07,09,22,-0.80
2009,12,07,09,23,-0.90
2009,12,07,09,24,-0.90
2009,12,07,09,25,-0.80
2009,12,07,09,26,-0.80
2009,12,07,09,27,-0.80
2009,12,07,09,28,-0.80
2009,12,07,09,29,-0.80
2009,12,07,09,30,-0.80
2009,12,07,09,31,-0.80
2009,12,07,09,32,-0.80
2009,12,07,09,33,-0.80
2009,12,07,09,34,-0.80
2009,12,07,09,35,-0.80
2009,12,07,09,36,-0.80
2009,12,07,09,37,-0.70
2009,12,07,09,38,-0.70
2009,12,07,09,39,-0.70
2009,12,07,09,40,-0.70
2009,12,07,09,41,-0.70
2009,12,07,09,42,-0.70
2009,12,07,09,43,-0.70
2009,12,07,09,44,-0.70
2009,12,07,09,45,-0.60
2009,12,07,09,46,-0.60
2009,12,07,09,47,-0.60
2009,12,07,09,48,-0.50
2009,12,07,09,49,-0.50
2009,12,07,09,50,-0.40
2009,12,07,09,51,-0.40
2009,12,07,09,52,-0.40
2009,12,07,09,53,-0.30
2009,12,07,09,54,-0.30
2009,12,07,09,55,-0.30
2009,12,07,09,56,-0.30
2009,12,07,09,57,-0.40
2009,12,07,09,58,-0.40
2009,12,07,09,59,-0.30
2009,12,07,10,00,-0.30
2009,12,07,10,01,-0.30
2009,12,07,10,02,-0.30
2009,12,07,10,03,-0.30
2009,12,07,10,04,-0.30
2009,12,07,10,05,-0.20
2009,12,07,10,06,-0.20
2009,12,07,10,07,-0.20
2009,12,07,10,08,-0.20
2009,12,07,10,09,-0.10
2009,12,07,10,10,-0.10
2009,12,07,10,11,-0.10
2009,12,07,10,12,-0.10
2009,12,07,10,13,-0.10
2009,12,07,10,14,-0.10
2009,12,07,10,15,0.00
2009,12,07,10,16,0.00
2009,12,07,10,17,0.00
2009,12,07,10,18,0.10
2009,12,07,10,19,0.10
2009,12,07,10,20,0.10
2009,12,07,10,21,0.10
2009,12,07,10,22,0.10
2009,12,07,10,23,0.20
2009,12,07,10,24,0.20
2009,12,07,10,25,0.20
2009,12,07,10,26,0.20
2009,12,07,10,27,0.20
2009,12,07,10,28,0.20
2009,12,07,10,29,0.20
2009,12,07,10,30,0.20
2009,12,07,10,31,0.20
2009,12,07,10,32,0.30
2009,12,07,10,33,0.30
2009,12,07,10,34,0.30
2009,12,07,10,35,0.30
2009,12,07,10,36,0.30
2009,12,07,10,37,0.30
2009,12,07,10,38,0.30
2009,12,07,10,39,0.30
2009,12,07,10,40,0.30
2009,12,07,10,41,0.30
2009,12,07,10,42,0.20
2009,12,07,10,43,0.30
2009,12,07,10,44,0.30
2009,12,07,10,45,0.30
2009,12,07,10,46,0.30
2009,12,07,10,47,0.30
2009,12,07,10,48,0.30
2009,12,07,10,49,0.30
2009,12,07,10,50,0.30
2009,12,07,10,51,0.40
2009,12,07,10,52,0.40
2009,12,07,10,53,0.40
2009,12,07,10,54,0.40
2009,12,07,10,55,0.40
2009,12,07,10,56,0.40
2009,12,07,10,57,0.40
2009,12,07,10,58,0.40
2009,12,07,10,59,0.40
2009,12,07,11,00,0.40
2009,12,07,11,01,0.50
2009,12,07,11,02,0.50
2009,12,07,11,03,0.50
2009,12,07,11,04,0.50
2009,12,07,11,05,0.40
2009,12,07,11,06,0.30
2009,12,07,11,07,0.30
2009,12,07,11,08,0.30
2009,12,07,11,09,0.40
2009,12,07,11,10,0.40
2009,12,07,11,11,0.40
2009,12,07,11,12,0.40
2009,12,07,11,13,0.40
2009,12,07,11,14,0.40
2009,12,07,11,15,0.40
2009,12,07,11,16,0.40
2009,12,07,11,17,0.40
2009,12,07,11,18,0.40
2009,12,07,11,19,0.30
2009,12,07,11,20,0.40
2009,12,07,11,21,0.40
2009,12,07,11,22,0.40
2009,12,07,11,23,0.50
2009,12,07,11,24,0.50
2009,12,07,11,25,0.50
2009,12,07,11,26,0.60
2009,12,07,11,27,0.70
2009,12,07,11,28,0.70
2009,12,07,11,29,0.70
2009,12,07,11,30,0.60
2009,12,07,11,31,0.60
2009,12,07,11,32,0.60
2009,12,07,11,33,0.60
2009,12,07,11,34,0.60
2009,12,07,11,35,0.60
2009,12,07,11,36,0.60
2009,12,07,11,37,0.50
2009,12,07,11,38,0.50
2009,12,07,11,39,0.50
2009,12,07,11,40,0.60
2009,12,07,11,41,0.60
2009,12,07,11,42,0.60
2009,12,07,11,43,0.70
2009,12,07,11,44,0.70
2009,12,07,11,45,0.70
2009,12,07,11,46,0.80
2009,12,07,11,47,0.80
2009,12,07,11,48,0.80
2009,12,07,11,49,0.90
2009,12,07,11,50,0.90
2009,12,07,11,51,0.90
2009,12,07,11,52,0.90
2009,12,07,11,53,0.90
2009,12,07,11,54,0.90
2009,12,07,11,55,0.90
2009,12,07,11,56,0.90
2009,12,07,11,57,0.90
2009,12,07,11,58,0.90
2009,12,07,11,59,0.90
2009,12,07,12,00,0.90
2009,12,07,12,01,0.90
2009,12,07,12,02,0.90
2009,12,07,12,03,0.90
2009,12,07,12,04,0.80
2009,12,07,12,05,0.90
2009,12,07,12,06,0.90
2009,12,07,12,07,0.90
2009,12,07,12,08,0.90
2009,12,07,12,09,0.90
2009,12,07,12,10,1.00
2009,12,07,12,11,1.00
2009,12,07,12,12,1.10
2009,12,07,12,13,1.00
2009,12,07,12,14,0.90
2009,12,07,12,15,0.80
2009,12,07,12,16,0.80
2009,12,07,12,17,0.80
2009,12,07,12,18,0.80
2009,12,07,12,19,0.80
2009,12,07,12,20,0.70
2009,12,07,12,21,0.70
2009,12,07,12,22,0.80
2009,12,07,12,23,0.80
2009,12,07,12,24,0.80
2009,12,07,12,25,0.70
2009,12,07,12,26,0.70
2009,12,07,12,27,0.70
2009,12,07,12,28,0.70
2009,12,07,12,29,0.70
2009,12,07,12,30,0.60
2009,12,07,12,31,0.60
2009,12,07,12,32,0.60
2009,12,07,12,33,0.50
2009,12,07,12,34,0.50
2009,12,07,12,35,0.60
2009,12,07,12,36,0.60
2009,12,07,12,37,0.60
2009,12,07,12,38,0.60
2009,12,07,12,39,0.60
2009,12,07,12,40,0.70
2009,12,07,12,41,0.70
2009,12,07,12,42,0.70
2009,12,07,12,43,0.60
2009,12,07,12,44,0.70
2009,12,07,12,45,0.70
2009,12,07,12,46,0.70
2009,12,07,12,47,0.80
2009,12,07,12,48,0.80
2009,12,07,12,49,0.90
2009,12,07,12,50,0.90
2009,12,07,12,51,0.80
2009,12,07,12,52,0.90
2009,12,07,12,53,0.90
2009,12,07,12,54,0.90
2009,12,07,12,55,1.00
2009,12,07,12,56,1.00
2009,12,07,12,57,1.00
2009,12,07,12,58,0.90
2009,12,07,12,59,0.90
2009,12,07,13,00,0.80
2009,12,07,13,01,0.80
2009,12,07,13,02,0.80
2009,12,07,13,03,0.80
2009,12,07,13,04,0.80
2009,12,07,13,05,0.80
2009,12,07,13,06,0.80
2009,12,07,13,07,0.80
2009,12,07,13,08,0.70
2009,12,07,13,09,0.70
2009,12,07,13,10,0.60
2009,12,07,13,11,0.60
2009,12,07,13,12,0.60
2009,12,07,13,13,0.60
2009,12,07,13,14,0.60
2009,12,07,13,15,0.50
2009,12,07,13,16,0.50
2009,12,07,13,17,0.50
2009,12,07,13,18,0.40
2009,12,07,13,19,0.40
2009,12,07,13,20,0.40
2009,12,07,13,21,0.40
2009,12,07,13,22,0.40
2009,12,07,13,23,0.40
2009,12,07,13,24,0.40
2009,12,07,13,25,0.30
2009,12,07,13,26,0.30
2009,12,07,13,27,0.30
2009,12,07,13,28,0.30
2009,12,07,13,29,0.30
2009,12,07,13,30,0.30
2009,12,07,13,31,0.30
2009,12,07,13,32,0.30
2009,12,07,13,33,0.30
2009,12,07,13,34,0.40
2009,12,07,13,35,0.40
2009,12,07,13,36,0.50
2009,12,07,13,37,0.50
2009,12,07,13,38,0.50
2009,12,07,13,39,0.50
2009,12,07,13,40,0.50
2009,12,07,13,41,0.50
2009,12,07,13,42,0.60
2009,12,07,13,43,0.60
2009,12,07,13,44,0.60
2009,12,07,13,45,0.70
2009,12,07,13,46,0.70
2009,12,07,13,47,0.70
2009,12,07,13,48,0.60
2009,12,07,13,49,0.60
2009,12,07,13,50,0.60
2009,12,07,13,51,0.70
2009,12,07,13,52,0.60
2009,12,07,13,53,0.60
2009,12,07,13,54,0.50
2009,12,07,13,55,0.50
2009,12,07,13,56,0.50
2009,12,07,13,57,0.50
2009,12,07,13,58,0.50
2009,12,07,13,59,0.50
2009,12,07,14,00,0.50
2009,12,07,14,01,0.50
2009,12,07,14,02,0.50
2009,12,07,14,03,0.50
2009,12,07,14,04,0.50
2009,12,07,14,05,0.60
2009,12,07,14,06,0.60
2009,12,07,14,07,0.60
2009,12,07,14,08,0.50
2009,12,07,14,09,0.50
2009,12,07,14,10,0.50
2009,12,07,14,11,0.50
2009,12,07,14,12,0.50
2009,12,07,14,13,0.40
2009,12,07,14,14,0.40
2009,12,07,14,15,0.40
2009,12,07,14,16,0.40
2009,12,07,14,17,0.40
2009,12,07,14,18,0.40
2009,12,07,14,19,0.30
2009,12,07,14,20,0.30
2009,12,07,14,21,0.30
2009,12,07,14,22,0.30
2009,12,07,14,23,0.30
2009,12,07,14,24,0.30
2009,12,07,14,25,0.30
2009,12,07,14,26,0.30
2009,12,07,14,27,0.30
2009,12,07,14,28,0.20
2009,12,07,14,29,0.20
2009,12,07,14,30,0.30
2009,12,07,14,31,0.30
2009,12,07,14,32,0.30
2009,12,07,14,33,0.30
2009,12,07,14,34,0.30
2009,12,07,14,35,0.30
2009,12,07,14,36,0.30
2009,12,07,14,37,0.30
2009,12,07,14,38,0.30
2009,12,07,14,39,0.20
2009,12,07,14,40,0.20
2009,12,07,14,41,0.20
2009,12,07,14,42,0.20
2009,12,07,14,43,0.20
2009,12,07,14,44,0.20
2009,12,07,14,45,0.20
2009,12,07,14,46,0.20
2009,12,07,14,47,0.20
2009,12,07,14,48,0.20
2009,12,07,14,49,0.20
2009,12,07,14,50,0.20
2009,12,07,14,51,0.20
2009,12,07,14,52,0.20
2009,12,07,14,53,0.20
2009,12,07,14,54,0.20
2009,12,07,14,55,0.20
2009,12,07,14,56,0.20
2009,12,07,14,57,0.20
2009,12,07,14,58,0.20
2009,12,07,14,59,0.20
2009,12,07,15,00,0.20
2009,12,07,15,01,0.20
2009,12,07,15,02,0.10
2009,12,07,15,03,0.10
2009,12,07,15,04,0.10
2009,12,07,15,05,0.10
2009,12,07,15,06,0.00
2009,12,07,15,07,0.10
2009,12,07,15,08,0.10
2009,12,07,15,09,0.00
2009,12,07,15,10,0.00
2009,12,07,15,11,0.00
2009,12,07,15,12,-0.10
2009,12,07,15,13,-0.10
2009,12,07,15,14,-0.10
2009,12,07,15,15,-0.10
2009,12,07,15,16,-0.10
2009,12,07,15,17,-0.10
2009,12,07,15,18,-0.10
2009,12,07,15,19,-0.10
2009,12,07,15,20,-0.10
2009,12,07,15,21,-0.10
2009,12,07,15,22,-0.10
2009,12,07,15,23,-0.10
2009,12,07,15,24,-0.10
2009,12,07,15,25,-0.10
2009,12,07,15,26,-0.10
2009,12,07,15,27,-0.10
